Regional Weather Roundup
Issued by NWS

Home | Current Version | Previous Version | Graphics & Text | Print | Product List | Glossary On
Versions: 1 2 3 4 5 6 7 8 9 10 11 12 13 14 15 16 17 18 19 20 21 22 23 24 25 26 27
000
ASUS45 KCYS 200310
RWRWY

WYOMING REGIONAL WEATHER ROUNDUP
NATIONAL WEATHER SERVICE CHEYENNE WY
900 PM MDT WED JUL 19 2017

NOTE:  "FAIR" INDICATES FEW OR NO CLOUDS BELOW 12,000 FEET
WITH NO SIGNIFICANT WEATHER AND/OR OBSTRUCTIONS TO VISIBILITY.

WYZ001-200400-
YELLOWSTONE NATIONAL PARK

CITY           SKY/WX    TMP DP  RH WIND       PRES   REMARKS
LK YELLOWSTONE   N/A     60  39  45 CALM      30.33R
W YELLOWSTONE  NOT AVBL

$$
WYZ002>013-054>058-071-098>099-200400-
NORTHERN WYOMING

CITY           SKY/WX    TMP DP  RH WIND       PRES   REMARKS
JACKSON        FAIR      73  36  25 S3        30.20R
CODY           FAIR      76  41  28 N3        30.09R
GREYBULL       FAIR      87  38  17 NW9       29.95R
WORLAND        FAIR      85  46  25 E12       29.98R
SHERIDAN       FAIR      74  55  51 CALM      30.03R
BUFFALO        FAIR      75  45  34 W7        30.13R
GILLETTE       FAIR      79  47  32 NE5       30.07R
HULETT         FAIR      77  50  38 E8        30.10R
NEWCASTLE      FAIR      81  54  39 NE7G16    30.05R

$$
WYZ014>020-022>026-101>103-200400-
CENTRAL WYOMING

CITY           SKY/WX    TMP DP  RH WIND       PRES   REMARKS
BIG PINEY      LGT RAIN  72  59  63 NE12      30.25R
PINEDALE       FAIR      72  45  37 CALM      30.27S
DUBOIS         FAIR      72  32  23 W8        30.26R
LANDER         FAIR      80  48  32 NE8       30.11R
RIVERTON       FAIR      83  47  28 SE14      30.11R
CASPER         FAIR      70  55  59 S22G31    30.17S
DOUGLAS        MOCLDY    83  45  26 SW13      30.15R

$$
WYZ021-027>030-104>119-200400-
SOUTHERN WYOMING

CITY           SKY/WX    TMP DP  RH WIND       PRES   REMARKS
EVANSTON       FAIR      67  51  56 S8        30.27F
KEMMERER         N/A     70  45  40 SW6       30.28F
FORT BRIDGER   FAIR      69  50  50 S16       30.30S
ROCK SPRINGS   LGT RAIN  64  54  69 SE9       30.29R
RAWLINS        LGT RAIN  63  53  70 SW14G25   30.33R
SARATOGA       DRIZZLE   63  57  82 CALM      30.38R
LARAMIE        FAIR      63  54  72 W7        30.35R
CHEYENNE       FAIR      71  54  54 N8G20     30.20F
TORRINGTON     CLOUDY    76  59  55 VRB3      30.06R
PINE BLUFFS    CLOUDY    70  57  64 W13G23    30.12R

$$




USA.gov is the U.S. government's official web portal to all federal, state and local government web resources and services.